Year,Month,Day,Hour,Minute,Value (Times are PST for temperature in C)
2022,04,24,08,19,7.50
2022,04,24,08,20,7.60
2022,04,24,08,21,7.60
2022,04,24,08,22,7.70
2022,04,24,08,23,7.70
2022,04,24,08,24,7.70
2022,04,24,08,25,7.70
2022,04,24,08,26,7.80
2022,04,24,08,27,7.80
2022,04,24,08,28,7.80
2022,04,24,08,29,7.80
2022,04,24,08,30,7.80
2022,04,24,08,31,7.80
2022,04,24,08,32,7.80
2022,04,24,08,33,7.80
2022,04,24,08,34,7.90
2022,04,24,08,35,7.90
2022,04,24,08,36,7.90
2022,04,24,08,37,7.90
2022,04,24,08,38,7.90
2022,04,24,08,39,7.90
2022,04,24,08,40,8.00
2022,04,24,08,41,8.00
2022,04,24,08,42,8.00
2022,04,24,08,43,8.10
2022,04,24,08,44,8.10
2022,04,24,08,45,8.10
2022,04,24,08,46,8.20
2022,04,24,08,47,8.20
2022,04,24,08,48,8.20
2022,04,24,08,49,8.30
2022,04,24,08,50,8.30
2022,04,24,08,51,8.40
2022,04,24,08,52,8.50
2022,04,24,08,53,8.60
2022,04,24,08,54,8.60
2022,04,24,08,55,8.70
2022,04,24,08,56,8.80
2022,04,24,08,57,8.90
2022,04,24,08,58,8.90
2022,04,24,08,59,9.00
2022,04,24,09,00,9.00
2022,04,24,09,01,9.10
2022,04,24,09,02,9.20
2022,04,24,09,03,9.30
2022,04,24,09,04,9.30
2022,04,24,09,05,9.30
2022,04,24,09,06,9.40
2022,04,24,09,07,9.40
2022,04,24,09,08,9.40
2022,04,24,09,09,9.50
2022,04,24,09,10,9.50
2022,04,24,09,11,9.50
2022,04,24,09,12,9.50
2022,04,24,09,13,9.40
2022,04,24,09,14,9.40
2022,04,24,09,15,9.40
2022,04,24,09,16,9.40
2022,04,24,09,17,9.40
2022,04,24,09,18,9.40
2022,04,24,09,19,9.50
2022,04,24,09,20,9.50
2022,04,24,09,21,9.50
2022,04,24,09,22,9.50
2022,04,24,09,23,9.60
2022,04,24,09,24,9.60
2022,04,24,09,25,9.60
2022,04,24,09,26,9.60
2022,04,24,09,27,9.70
2022,04,24,09,28,9.70
2022,04,24,09,29,9.60
2022,04,24,09,30,9.60
2022,04,24,09,31,9.60
2022,04,24,09,32,9.60
2022,04,24,09,33,9.70
2022,04,24,09,34,9.70
2022,04,24,09,35,9.70
2022,04,24,09,36,9.60
2022,04,24,09,37,9.60
2022,04,24,09,38,9.60
2022,04,24,09,39,9.60
2022,04,24,09,40,9.50
2022,04,24,09,41,9.50
2022,04,24,09,42,9.60
2022,04,24,09,43,9.60
2022,04,24,09,44,9.60
2022,04,24,09,45,9.60
2022,04,24,09,46,9.70
2022,04,24,09,47,9.70
2022,04,24,09,48,9.80
2022,04,24,09,49,9.80
2022,04,24,09,50,9.80
2022,04,24,09,51,9.90
2022,04,24,09,52,10.00
2022,04,24,09,53,10.10
2022,04,24,09,54,10.00
2022,04,24,09,55,10.00
2022,04,24,09,56,9.90
2022,04,24,09,57,9.90
2022,04,24,09,58,9.90
2022,04,24,09,59,9.90
2022,04,24,10,00,9.90
2022,04,24,10,01,10.00
2022,04,24,10,02,10.00
2022,04,24,10,03,10.10
2022,04,24,10,04,10.10
2022,04,24,10,05,10.10
2022,04,24,10,06,10.10
2022,04,24,10,07,10.20
2022,04,24,10,08,10.30
2022,04,24,10,09,10.30
2022,04,24,10,10,10.30
2022,04,24,10,11,10.20
2022,04,24,10,12,10.20
2022,04,24,10,13,10.10
2022,04,24,10,14,10.10
2022,04,24,10,15,10.10
2022,04,24,10,16,10.10
2022,04,24,10,17,10.20
2022,04,24,10,18,10.20
2022,04,24,10,19,10.20
2022,04,24,10,20,10.20
2022,04,24,10,21,10.20
2022,04,24,10,22,10.20
2022,04,24,10,23,10.20
2022,04,24,10,24,10.20
2022,04,24,10,25,10.20
2022,04,24,10,26,10.20
2022,04,24,10,27,10.20
2022,04,24,10,28,10.20
2022,04,24,10,29,10.20
2022,04,24,10,30,10.20
2022,04,24,10,31,10.30
2022,04,24,10,32,10.40
2022,04,24,10,33,10.40
2022,04,24,10,34,10.40
2022,04,24,10,35,10.40
2022,04,24,10,36,10.30
2022,04,24,10,37,10.30
2022,04,24,10,38,10.30
2022,04,24,10,39,10.30
2022,04,24,10,40,10.30
2022,04,24,10,41,10.30
2022,04,24,10,42,10.30
2022,04,24,10,43,10.30
2022,04,24,10,44,10.40
2022,04,24,10,45,10.40
2022,04,24,10,46,10.40
2022,04,24,10,47,10.40
2022,04,24,10,48,10.40
2022,04,24,10,49,10.40
2022,04,24,10,50,10.50
2022,04,24,10,51,10.50
2022,04,24,10,52,10.60
2022,04,24,10,53,10.70
2022,04,24,10,54,10.70
2022,04,24,10,55,10.80
2022,04,24,10,56,10.80
2022,04,24,10,57,10.80
2022,04,24,10,58,10.90
2022,04,24,10,59,10.90
2022,04,24,11,00,10.90
2022,04,24,11,01,10.90
2022,04,24,11,02,10.80
2022,04,24,11,03,10.80
2022,04,24,11,04,10.80
2022,04,24,11,05,10.70
2022,04,24,11,06,10.80
2022,04,24,11,07,10.70
2022,04,24,11,08,10.70
2022,04,24,11,09,10.80
2022,04,24,11,10,10.90
2022,04,24,11,11,10.90
2022,04,24,11,12,10.90
2022,04,24,11,13,10.90
2022,04,24,11,14,10.90
2022,04,24,11,15,10.90
2022,04,24,11,16,10.90
2022,04,24,11,17,11.00
2022,04,24,11,18,11.00
2022,04,24,11,19,11.00
2022,04,24,11,20,11.00
2022,04,24,11,21,11.00
2022,04,24,11,22,11.00
2022,04,24,11,23,11.00
2022,04,24,11,24,11.00
2022,04,24,11,25,11.00
2022,04,24,11,26,11.10
2022,04,24,11,27,11.10
2022,04,24,11,28,11.10
2022,04,24,11,29,11.20
2022,04,24,11,30,11.20
2022,04,24,11,31,11.10
2022,04,24,11,32,11.10
2022,04,24,11,33,11.10
2022,04,24,11,34,11.20
2022,04,24,11,35,11.10
2022,04,24,11,36,11.10
2022,04,24,11,37,11.00
2022,04,24,11,38,11.10
2022,04,24,11,39,11.10
2022,04,24,11,40,11.10
2022,04,24,11,41,11.00
2022,04,24,11,42,10.90
2022,04,24,11,43,10.90
2022,04,24,11,44,10.80
2022,04,24,11,45,10.80
2022,04,24,11,46,10.80
2022,04,24,11,47,10.80
2022,04,24,11,48,10.90
2022,04,24,11,49,10.90
2022,04,24,11,50,10.90
2022,04,24,11,51,10.90
2022,04,24,11,52,10.90
2022,04,24,11,53,10.90
2022,04,24,11,54,10.90
2022,04,24,11,55,10.90
2022,04,24,11,56,11.00
2022,04,24,11,57,11.00
2022,04,24,11,58,11.10
2022,04,24,11,59,11.10
2022,04,24,12,00,11.00
2022,04,24,12,01,11.00
2022,04,24,12,02,11.00
2022,04,24,12,03,11.10
2022,04,24,12,04,11.10
2022,04,24,12,05,11.20
2022,04,24,12,06,11.20
2022,04,24,12,07,11.20
2022,04,24,12,08,11.20
2022,04,24,12,09,11.20
2022,04,24,12,10,11.30
2022,04,24,12,11,11.40
2022,04,24,12,12,11.40
2022,04,24,12,13,11.50
2022,04,24,12,14,11.50
2022,04,24,12,15,11.70
2022,04,24,12,16,11.70
2022,04,24,12,17,11.80
2022,04,24,12,18,11.70
2022,04,24,12,19,11.70
2022,04,24,12,20,11.60
2022,04,24,12,21,11.60
2022,04,24,12,22,11.60
2022,04,24,12,23,11.60
2022,04,24,12,24,11.60
2022,04,24,12,25,11.60
2022,04,24,12,26,11.70
2022,04,24,12,27,11.70
2022,04,24,12,28,11.80
2022,04,24,12,29,11.80
2022,04,24,12,30,11.80
2022,04,24,12,31,11.80
2022,04,24,12,32,11.80
2022,04,24,12,33,11.80
2022,04,24,12,34,11.80
2022,04,24,12,35,11.80
2022,04,24,12,36,11.80
2022,04,24,12,37,11.70
2022,04,24,12,38,11.70
2022,04,24,12,39,11.70
2022,04,24,12,40,11.80
2022,04,24,12,41,11.80
2022,04,24,12,42,11.80
2022,04,24,12,43,11.80
2022,04,24,12,44,11.80
2022,04,24,12,45,11.80
2022,04,24,12,46,11.90
2022,04,24,12,47,11.90
2022,04,24,12,48,11.90
2022,04,24,12,49,11.90
2022,04,24,12,50,11.90
2022,04,24,12,51,11.90
2022,04,24,12,52,11.90
2022,04,24,12,53,11.90
2022,04,24,12,54,11.90
2022,04,24,12,55,11.90
2022,04,24,12,56,11.90
2022,04,24,12,57,11.90
2022,04,24,12,58,11.90
2022,04,24,12,59,11.90
2022,04,24,13,00,12.00
2022,04,24,13,01,12.00
2022,04,24,13,02,12.00
2022,04,24,13,03,12.00
2022,04,24,13,04,12.00
2022,04,24,13,05,12.00
2022,04,24,13,06,11.90
2022,04,24,13,07,11.90
2022,04,24,13,08,12.00
2022,04,24,13,09,12.10
2022,04,24,13,10,12.10
2022,04,24,13,11,12.20
2022,04,24,13,12,12.20
2022,04,24,13,13,12.20
2022,04,24,13,14,12.20
2022,04,24,13,15,12.20
2022,04,24,13,16,12.20
2022,04,24,13,17,12.20
2022,04,24,13,18,12.20
2022,04,24,13,19,12.20
2022,04,24,13,20,12.30
2022,04,24,13,21,12.30
2022,04,24,13,22,12.30
2022,04,24,13,23,12.30
2022,04,24,13,24,12.30
2022,04,24,13,25,12.30
2022,04,24,13,26,12.30
2022,04,24,13,27,12.30
2022,04,24,13,28,12.30
2022,04,24,13,29,12.30
2022,04,24,13,30,12.20
2022,04,24,13,31,12.20
2022,04,24,13,32,12.20
2022,04,24,13,33,12.20
2022,04,24,13,34,12.20
2022,04,24,13,35,12.20
2022,04,24,13,36,12.20
2022,04,24,13,37,12.10
2022,04,24,13,38,12.10
2022,04,24,13,39,12.10
2022,04,24,13,40,12.10
2022,04,24,13,41,12.00
2022,04,24,13,42,12.00
2022,04,24,13,43,12.00
2022,04,24,13,44,12.00
2022,04,24,13,45,12.00
2022,04,24,13,46,12.00
2022,04,24,13,47,12.00
2022,04,24,13,48,12.00
2022,04,24,13,49,12.00
2022,04,24,13,50,12.10
2022,04,24,13,51,12.00
2022,04,24,13,52,12.00
2022,04,24,13,53,12.00
2022,04,24,13,54,12.00
2022,04,24,13,55,12.10
2022,04,24,13,56,12.10
2022,04,24,13,57,12.10
2022,04,24,13,58,12.10
2022,04,24,13,59,12.10
2022,04,24,14,00,12.20
2022,04,24,14,01,12.20
2022,04,24,14,02,12.20
2022,04,24,14,03,12.20
2022,04,24,14,04,12.20
2022,04,24,14,05,12.30
2022,04,24,14,06,12.40
2022,04,24,14,07,12.40
2022,04,24,14,08,12.40
2022,04,24,14,09,12.40
2022,04,24,14,10,12.50
2022,04,24,14,11,12.50
2022,04,24,14,12,12.60
2022,04,24,14,13,12.70
2022,04,24,14,14,12.70
2022,04,24,14,15,12.70
2022,04,24,14,16,12.80
2022,04,24,14,17,12.80
2022,04,24,14,18,12.80
2022,04,24,14,19,12.90
2022,04,24,14,20,13.00
2022,04,24,14,21,13.10
2022,04,24,14,22,13.10
2022,04,24,14,23,13.10
2022,04,24,14,24,13.10
2022,04,24,14,25,13.10
2022,04,24,14,26,13.10
2022,04,24,14,27,13.00
2022,04,24,14,28,13.00
2022,04,24,14,29,13.00
2022,04,24,14,30,13.00
2022,04,24,14,31,13.10
2022,04,24,14,32,13.10
2022,04,24,14,33,13.10
2022,04,24,14,34,13.10
2022,04,24,14,35,13.10
2022,04,24,14,36,13.10
2022,04,24,14,37,13.00
2022,04,24,14,38,13.00
2022,04,24,14,39,13.00
2022,04,24,14,40,13.00
2022,04,24,14,41,13.00
2022,04,24,14,42,13.00
2022,04,24,14,43,13.00
2022,04,24,14,44,13.00
2022,04,24,14,45,13.00
2022,04,24,14,46,13.00
2022,04,24,14,47,12.90
2022,04,24,14,48,12.90
2022,04,24,14,49,12.90
2022,04,24,14,50,12.90
2022,04,24,14,51,12.90
2022,04,24,14,52,13.00
2022,04,24,14,53,13.00
2022,04,24,14,54,13.10
2022,04,24,14,55,13.10
2022,04,24,14,56,13.10
2022,04,24,14,57,13.10
2022,04,24,14,58,13.00
2022,04,24,14,59,13.10
2022,04,24,15,00,13.10
2022,04,24,15,01,13.10
2022,04,24,15,02,13.10
2022,04,24,15,03,13.20
2022,04,24,15,04,13.20
2022,04,24,15,05,13.30
2022,04,24,15,06,13.30
2022,04,24,15,07,13.40
2022,04,24,15,08,13.40
2022,04,24,15,09,13.40
2022,04,24,15,10,13.40
2022,04,24,15,11,13.40
2022,04,24,15,12,13.40
2022,04,24,15,13,13.30
2022,04,24,15,14,13.30
2022,04,24,15,15,13.30
2022,04,24,15,16,13.30
2022,04,24,15,17,13.30
2022,04,24,15,18,13.30
2022,04,24,15,19,13.30
2022,04,24,15,20,13.30
2022,04,24,15,21,13.40
2022,04,24,15,22,13.50
2022,04,24,15,23,13.50
2022,04,24,15,24,13.50
2022,04,24,15,25,13.50
2022,04,24,15,26,13.50
2022,04,24,15,27,13.40
2022,04,24,15,28,13.40
2022,04,24,15,29,13.40
2022,04,24,15,30,13.40
2022,04,24,15,31,13.40
2022,04,24,15,32,13.40
2022,04,24,15,33,13.40
2022,04,24,15,34,13.50
2022,04,24,15,35,13.50
2022,04,24,15,36,13.50
2022,04,24,15,37,13.50
2022,04,24,15,38,13.50
2022,04,24,15,39,13.40
2022,04,24,15,40,13.40
2022,04,24,15,41,13.40
2022,04,24,15,42,13.40
2022,04,24,15,43,13.40
2022,04,24,15,44,13.30
2022,04,24,15,45,13.30
2022,04,24,15,46,13.20
2022,04,24,15,47,13.20
2022,04,24,15,48,13.20
2022,04,24,15,49,13.20
2022,04,24,15,50,13.30
2022,04,24,15,51,13.40
2022,04,24,15,52,13.40
2022,04,24,15,53,13.50
2022,04,24,15,54,13.60
2022,04,24,15,55,13.70
2022,04,24,15,56,13.80
2022,04,24,15,57,13.90
2022,04,24,15,58,13.90
2022,04,24,15,59,14.00
2022,04,24,16,00,14.00
2022,04,24,16,01,14.00
2022,04,24,16,02,14.10
2022,04,24,16,03,14.10
2022,04,24,16,04,14.20
2022,04,24,16,05,14.20
2022,04,24,16,06,14.30
2022,04,24,16,07,14.30
2022,04,24,16,08,14.40
2022,04,24,16,09,14.40
2022,04,24,16,10,14.40
2022,04,24,16,11,14.40
2022,04,24,16,12,14.40
2022,04,24,16,13,14.40
2022,04,24,16,14,14.30
2022,04,24,16,15,14.30
2022,04,24,16,16,14.20
2022,04,24,16,17,14.20
2022,04,24,16,18,14.10
2022,04,24,16,19,14.10
2022,04,24,16,20,14.10
2022,04,24,16,21,14.00
2022,04,24,16,22,14.00
2022,04,24,16,23,14.00
2022,04,24,16,24,14.00
2022,04,24,16,25,14.10
2022,04,24,16,26,14.00
2022,04,24,16,27,14.00
2022,04,24,16,28,13.90
2022,04,24,16,29,13.80
2022,04,24,16,30,13.80
2022,04,24,16,31,13.80
2022,04,24,16,32,13.80
2022,04,24,16,33,13.80
2022,04,24,16,34,13.80
2022,04,24,16,35,13.70
2022,04,24,16,36,13.70
2022,04,24,16,37,13.70
2022,04,24,16,38,13.70
2022,04,24,16,39,13.70
2022,04,24,16,40,13.80
2022,04,24,16,41,13.80
2022,04,24,16,42,13.80
2022,04,24,16,43,13.80
2022,04,24,16,44,13.80
2022,04,24,16,45,13.80
2022,04,24,16,46,13.80
2022,04,24,16,47,13.70
2022,04,24,16,48,13.80
2022,04,24,16,49,13.80
2022,04,24,16,50,13.80
2022,04,24,16,51,13.90
2022,04,24,16,52,14.00
2022,04,24,16,53,14.00
2022,04,24,16,54,14.10
2022,04,24,16,55,14.10
2022,04,24,16,56,14.10
2022,04,24,16,57,14.10
2022,04,24,16,58,14.10
2022,04,24,16,59,14.20
2022,04,24,17,00,14.20
2022,04,24,17,01,14.20
2022,04,24,17,02,14.20
2022,04,24,17,03,14.30
2022,04,24,17,04,14.30
2022,04,24,17,05,14.40
2022,04,24,17,06,14.40
2022,04,24,17,07,14.40
2022,04,24,17,08,14.50
2022,04,24,17,09,14.50
2022,04,24,17,10,14.50
2022,04,24,17,11,14.60
2022,04,24,17,12,14.60
2022,04,24,17,13,14.60
2022,04,24,17,14,14.70
2022,04,24,17,15,14.70
2022,04,24,17,16,14.70
2022,04,24,17,17,14.70
2022,04,24,17,18,14.60
2022,04,24,17,19,14.60
2022,04,24,17,20,14.70
2022,04,24,17,21,14.70
2022,04,24,17,22,14.70
2022,04,24,17,23,14.80
2022,04,24,17,24,14.80
2022,04,24,17,25,14.80
2022,04,24,17,26,14.80
2022,04,24,17,27,14.80
2022,04,24,17,28,14.80
2022,04,24,17,29,14.80
2022,04,24,17,30,14.80
2022,04,24,17,31,14.70
2022,04,24,17,32,14.70
2022,04,24,17,33,14.70
2022,04,24,17,34,14.60
2022,04,24,17,35,14.60
2022,04,24,17,36,14.60
2022,04,24,17,37,14.60
2022,04,24,17,38,14.70
2022,04,24,17,39,14.70
2022,04,24,17,40,14.70
2022,04,24,17,41,14.80
2022,04,24,17,42,14.80
2022,04,24,17,43,14.90
2022,04,24,17,44,14.90
2022,04,24,17,45,14.90
2022,04,24,17,46,15.00
2022,04,24,17,47,15.00
2022,04,24,17,48,15.00
2022,04,24,17,49,15.10
2022,04,24,17,50,15.10
2022,04,24,17,51,15.10
2022,04,24,17,52,15.20
2022,04,24,17,53,15.20
2022,04,24,17,54,15.20
2022,04,24,17,55,15.20
2022,04,24,17,56,15.20
2022,04,24,17,57,15.20
2022,04,24,17,58,15.20
2022,04,24,17,59,15.30
2022,04,24,18,00,15.30
2022,04,24,18,01,15.30
2022,04,24,18,02,15.30
2022,04,24,18,03,15.30
2022,04,24,18,04,15.30
2022,04,24,18,05,15.30
2022,04,24,18,06,15.30
2022,04,24,18,07,15.30
2022,04,24,18,08,15.30
2022,04,24,18,09,15.30
2022,04,24,18,10,15.30
2022,04,24,18,11,15.30
2022,04,24,18,12,15.30
